| time (UTC) | temp C | wind direction | speed KPH | gust KPH | rain 1hr cm | rain 24hr cm | rain mn cm | humidity % | barometer mb |
| 20260506215517 | 3 | 0 | 4.8 | 14.5 | 0.00 | 0.23 | 0.23 | 81 | 1014.8 |
| 20260506214517 | 3 | 0 | 17.7 | 29.0 | 0.00 | 0.25 | 0.23 | 80 | 1014.8 |
| 20260506213517 | 3 | 0 | 6.4 | 12.9 | 0.00 | 0.30 | 0.23 | 82 | 1014.7 |
| 20260506212516 | 3 | 0 | 4.8 | 6.4 | 0.00 | 0.30 | 0.23 | 82 | 1014.6 |
| 20260506211516 | 3 | 0 | 4.8 | 9.7 | 0.00 | 0.30 | 0.23 | 82 | 1014.5 |
| 20260506210517 | 3 | 0 | 4.8 | 8.0 | 0.00 | 0.30 | 0.23 | 82 | 1014.6 |
| 20260506205516 | 3 | 0 | 4.8 | 9.7 | 0.00 | 0.30 | 0.23 | 83 | 1014.6 |
| 20260506204517 | 3 | 0 | 4.8 | 8.0 | 0.00 | 0.30 | 0.23 | 82 | 1014.5 |
| 20260506203516 | 3 | 0 | 4.8 | 8.0 | 0.00 | 0.30 | 0.23 | 82 | 1014.4 |
| 20260506202517 | 3 | 0 | 4.8 | 8.0 | 0.00 | 0.30 | 0.23 | 82 | 1014.5 |
| 20260506201537 | 3 | 0 | 6.4 | 9.7 | 0.00 | 0.30 | 0.23 | 82 | 1014.5 |
| 20260506200516 | 3 | 0 | 3.2 | 8.0 | 0.00 | 0.30 | 0.23 | 82 | 1014.4 |
| 20260506195516 | 3 | 0 | 6.4 | 12.9 | 0.00 | 0.30 | 0.23 | 82 | 1014.4 |
| 20260506194516 | 4 | 0 | 6.4 | 9.7 | 0.00 | 0.30 | 0.23 | 82 | 1014.5 |
| 20260506193515 | 4 | 0 | 6.4 | 12.9 | 0.00 | 0.30 | 0.23 | 81 | 1014.4 |
| 20260506192536 | 4 | 0 | 6.4 | 12.9 | 0.00 | 0.30 | 0.23 | 82 | 1014.3 |
| 20260506191516 | 5 | 0 | 6.4 | 12.9 | 0.00 | 0.30 | 0.23 | 81 | 1014.2 |
| 20260506190515 | 5 | 0 | 6.4 | 12.9 | 0.00 | 0.30 | 0.23 | 81 | 1014.3 |
| 20260506185515 | 5 | 0 | 9.7 | 16.1 | 0.00 | 0.30 | 0.23 | 81 | 1014.3 |
| 20260506184536 | 5 | 0 | 8.0 | 12.9 | 0.00 | 0.30 | 0.23 | 81 | 1014.1 |
| 20260506183537 | 5 | 0 | 8.0 | 16.1 | 0.00 | 0.33 | 0.23 | 81 | 1014.1 |
| 20260506182518 | 5 | 0 | 9.7 | 16.1 | 0.00 | 0.36 | 0.23 | 81 | 1014.0 |
| 20260506180517 | 5 | 0 | 12.9 | 20.9 | 0.00 | 0.36 | 0.23 | 80 | 1014.0 |
| 20260506175518 | 6 | 0 | 11.3 | 19.3 | 0.00 | 0.36 | 0.23 | 81 | 1014.2 |
| 20260506174538 | 5 | 0 | 11.3 | 17.7 | 0.00 | 0.36 | 0.23 | 81 | 1014.1 |
| 20260506173517 | 5 | 0 | 11.3 | 17.7 | 0.00 | 0.41 | 0.23 | 80 | 1014.1 |
| 20260506172517 | 5 | 0 | 12.9 | 20.9 | 0.00 | 0.48 | 0.23 | 79 | 1013.9 |
| 20260506171517 | 5 | 0 | 9.7 | 14.5 | 0.00 | 0.51 | 0.23 | 77 | 1013.8 |
| 20260506170517 | 5 | 0 | 9.7 | 17.7 | 0.00 | 0.51 | 0.23 | 79 | 1013.8 |
| 20260506165557 | 5 | 0 | 9.7 | 16.1 | 0.00 | 0.51 | 0.23 | 81 | 1013.9 |
| 20260506164517 | 4 | 0 | 9.7 | 16.1 | 0.00 | 0.51 | 0.23 | 83 | 1013.8 |
| 20260506163537 | 4 | 0 | 9.7 | 16.1 | 0.00 | 0.51 | 0.23 | 84 | 1013.9 |
| 20260506162517 | 4 | 0 | 11.3 | 19.3 | 0.00 | 0.51 | 0.23 | 84 | 1014.0 |
| 20260506161517 | 4 | 0 | 11.3 | 17.7 | 0.00 | 0.51 | 0.23 | 84 | 1013.9 |
| 20260506160537 | 5 | 0 | 8.0 | 14.5 | 0.00 | 0.51 | 0.23 | 84 | 1013.9 |
| 20260506155517 | 5 | 0 | 11.3 | 16.1 | 0.00 | 0.51 | 0.23 | 84 | 1014.0 |
| 20260506154517 | 5 | 0 | 12.9 | 20.9 | 0.00 | 0.51 | 0.23 | 83 | 1013.9 |
| 20260506153517 | 5 | 0 | 14.5 | 22.5 | 0.00 | 0.51 | 0.23 | 83 | 1014.1 |
| 20260506152517 | 5 | 0 | 16.1 | 25.7 | 0.00 | 0.51 | 0.23 | 83 | 1014.1 |
| 20260506151517 | 6 | 0 | 16.1 | 25.7 | 0.00 | 0.51 | 0.23 | 83 | 1014.0 |
| 20260506150558 | 5 | 0 | 14.5 | 24.1 | 0.00 | 0.51 | 0.23 | 82 | 1014.0 |
| 20260506145517 | 6 | 0 | 12.9 | 20.9 | 0.00 | 0.51 | 0.23 | 80 | 1014.0 |
| 20260506144520 | 5 | 0 | 9.7 | 17.7 | 0.00 | 0.61 | 0.23 | 80 | 1013.9 |
| 20260506143518 | 5 | 0 | 12.9 | 20.9 | 0.00 | 0.61 | 0.23 | 82 | 1013.9 |
| 20260506142517 | 5 | 0 | 16.1 | 24.1 | 0.00 | 0.61 | 0.23 | 82 | 1013.8 |
| 20260506141518 | 4 | 0 | 12.9 | 19.3 | 0.00 | 0.61 | 0.23 | 85 | 1013.9 |
| 20260506140520 | 4 | 0 | 17.7 | 25.7 | 0.00 | 0.61 | 0.23 | 85 | 1013.9 |
| 20260506135519 | 5 | 0 | 19.3 | 32.2 | 0.00 | 0.61 | 0.23 | 84 | 1014.0 |
| 20260506134538 | 6 | 0 | 17.7 | 25.7 | 0.00 | 0.61 | 0.23 | 84 | 1014.0 |
| 20260506133517 | 5 | 0 | 17.7 | 29.0 | 0.00 | 0.61 | 0.23 | 86 | 1013.9 |
| 20260506132518 | 4 | 0 | 17.7 | 29.0 | 0.00 | 0.61 | 0.23 | 87 | 1013.8 |
| 20260506131521 | 4 | 0 | 17.7 | 27.4 | 0.00 | 0.61 | 0.23 | 87 | 1013.8 |
| 20260506130517 | 3 | 0 | 19.3 | 29.0 | 0.00 | 0.61 | 0.23 | 86 | 1013.9 |
| 20260506125537 | 4 | 0 | 19.3 | 27.4 | 0.00 | 0.61 | 0.23 | 86 | 1013.8 |
| 20260506124517 | 4 | 0 | 20.9 | 33.8 | 0.00 | 0.61 | 0.23 | 86 | 1013.8 |
| 20260506123517 | 5 | 0 | 19.3 | 32.2 | 0.00 | 0.61 | 0.23 | 83 | 1013.8 |
| 20260506122516 | 6 | 0 | 19.3 | 27.4 | 0.00 | 0.61 | 0.23 | 80 | 1013.6 |
| 20260506121517 | 5 | 0 | 19.3 | 29.0 | 0.00 | 0.61 | 0.23 | 80 | 1013.5 |
| 20260506120536 | 5 | 0 | 14.5 | 25.7 | 0.00 | 0.61 | 0.23 | 83 | 1013.6 |
| 20260506115537 | 5 | 0 | 12.9 | 22.5 | 0.00 | 0.61 | 0.23 | 85 | 1013.5 |
| 20260506114517 | 5 | 0 | 16.1 | 24.1 | 0.00 | 0.64 | 0.23 | 86 | 1013.6 |
| 20260506113517 | 4 | 0 | 14.5 | 20.9 | 0.00 | 0.64 | 0.23 | 87 | 1013.6 |
| 20260506112520 | 5 | 0 | 14.5 | 29.0 | 0.00 | 0.66 | 0.23 | 88 | 1013.6 |
| 20260506111516 | 4 | 0 | 14.5 | 25.7 | 0.00 | 0.66 | 0.23 | 89 | 1013.7 |
| 20260506110537 | 3 | 0 | 12.9 | 20.9 | 0.00 | 0.69 | 0.23 | 90 | 1013.7 |
| 20260506105516 | 3 | 0 | 14.5 | 24.1 | 0.00 | 0.69 | 0.23 | 89 | 1013.4 |
| 20260506104557 | 3 | 0 | 16.1 | 24.1 | 0.00 | 0.69 | 0.23 | 89 | 1013.4 |
| 20260506102517 | 3 | 0 | 14.5 | 24.1 | 0.00 | 0.69 | 0.23 | 89 | 1013.4 |
| 20260506101519 | 3 | 0 | 17.7 | 29.0 | 0.00 | 0.69 | 0.23 | 90 | 1013.4 |
| 20260506100516 | 3 | 0 | 17.7 | 27.4 | 0.00 | 0.69 | 0.23 | 89 | 1013.4 |
| 20260506095516 | 4 | 0 | 17.7 | 25.7 | 0.00 | 0.69 | 0.23 | 89 | 1013.1 |
| 20260506094516 | 3 | 0 | 12.9 | 22.5 | 0.00 | 0.69 | 0.23 | 89 | 1013.1 |
| 20260506093536 | 3 | 0 | 19.3 | 25.7 | 0.00 | 0.69 | 0.23 | 89 | 1013.2 |
| 20260506092516 | 3 | 0 | 17.7 | 25.7 | 0.00 | 0.69 | 0.23 | 92 | 1013.2 |
| 20260506091516 | 3 | 0 | 20.9 | 29.0 | 0.00 | 0.69 | 0.23 | 91 | 1013.1 |
| 20260506090516 | 3 | 0 | 12.9 | 22.5 | 0.00 | 0.69 | 0.23 | 93 | 1013.2 |
| 20260506085516 | 2 | 0 | 16.1 | 24.1 | 0.00 | 0.69 | 0.23 | 93 | 1013.2 |
| 20260506084516 | 2 | 0 | 9.7 | 20.9 | 0.00 | 0.69 | 0.23 | 93 | 1013.1 |
| 20260506083516 | 2 | 0 | 11.3 | 22.5 | 0.00 | 0.69 | 0.23 | 92 | 1013.0 |
| 20260506082536 | 2 | 0 | 12.9 | 20.9 | 0.00 | 0.69 | 0.23 | 93 | 1013.0 |
| 20260506081516 | 1 | 0 | 14.5 | 24.1 | 0.03 | 0.69 | 0.23 | 92 | 1012.9 |
| 20260506080516 | 1 | 0 | 20.9 | 30.6 | 0.03 | 0.69 | 0.23 | 92 | 1012.8 |
| 20260506073516 | 2 | 0 | 19.3 | 25.7 | 0.03 | 0.71 | 0.23 | 91 | 1012.6 |
| 20260506072516 | 2 | 0 | 19.3 | 32.2 | 0.03 | 0.71 | 0.23 | 91 | 1012.6 |
| 20260506071516 | 2 | 0 | 16.1 | 27.4 | 0.00 | 0.69 | 0.20 | 91 | 1012.6 |
| 20260506070516 | 2 | 0 | 24.1 | 35.4 | 0.00 | 0.69 | 0.20 | 91 | 1012.4 |
| 20260506062516 | 3 | 0 | 22.5 | 37.0 | 0.00 | 0.69 | 0.20 | 90 | 1012.2 |
| 20260506061535 | 3 | 0 | 17.7 | 25.7 | 0.00 | 0.69 | 0.20 | 90 | 1012.1 |
| 20260506060515 | 3 | 0 | 20.9 | 29.0 | 0.00 | 0.69 | 0.20 | 91 | 1012.1 |
| 20260506050538 | 2 | 0 | 20.9 | 30.6 | 0.00 | 0.69 | 0.20 | 91 | 1011.9 |
| 20260506044517 | 2 | 0 | 17.7 | 25.7 | 0.00 | 0.69 | 0.20 | 91 | 1012.1 |
| 20260506043517 | 2 | 0 | 20.9 | 32.2 | 0.00 | 0.69 | 0.20 | 90 | 1012.0 |
| 20260506042517 | 2 | 0 | 19.3 | 29.0 | 0.00 | 0.69 | 0.20 | 89 | 1012.0 |
| 20260506041517 | 2 | 0 | 19.3 | 29.0 | 0.00 | 0.69 | 0.20 | 89 | 1012.0 |
| 20260506040517 | 2 | 0 | 19.3 | 27.4 | 0.00 | 0.69 | 0.20 | 89 | 1012.0 |
| 20260506035517 | 2 | 0 | 16.1 | 25.7 | 0.00 | 0.69 | 0.20 | 89 | 1011.9 |
| 20260506034537 | 2 | 0 | 19.3 | 27.4 | 0.00 | 0.69 | 0.20 | 89 | 1011.9 |
| 20260506033517 | 2 | 0 | 20.9 | 32.2 | 0.00 | 0.69 | 0.20 | 90 | 1011.7 |
| 20260506032517 | 2 | 0 | 19.3 | 27.4 | 0.03 | 0.69 | 0.20 | 90 | 1011.6 |
| 20260506031557 | 2 | 0 | 20.9 | 30.6 | 0.03 | 0.71 | 0.20 | 90 | 1011.7 |
| 20260506030517 | 2 | 0 | 19.3 | 30.6 | 0.03 | 0.71 | 0.20 | 90 | 1011.7 |
| 20260506025517 | 2 | 0 | 20.9 | 29.0 | 0.03 | 0.71 | 0.20 | 90 | 1011.7 |
| 20260506024517 | 2 | 0 | 22.5 | 32.2 | 0.05 | 0.71 | 0.20 | 89 | 1011.7 |
| 20260506023517 | 2 | 0 | 22.5 | 33.8 | 0.10 | 0.71 | 0.20 | 89 | 1011.5 |
| 20260506022517 | 3 | 0 | 19.3 | 29.0 | 0.10 | 0.69 | 0.18 | 89 | 1011.6 |
| 20260506021537 | 2 | 0 | 17.7 | 29.0 | 0.10 | 0.69 | 0.18 | 89 | 1011.7 |
| 20260506020517 | 2 | 0 | 17.7 | 32.2 | 0.10 | 0.69 | 0.18 | 89 | 1011.8 |
| 20260506015517 | 2 | 0 | 19.3 | 32.2 | 0.10 | 0.69 | 0.18 | 89 | 1011.6 |
| 20260506014517 | 2 | 0 | 16.1 | 29.0 | 0.08 | 0.66 | 0.15 | 90 | 1011.7 |
| 20260506013517 | 2 | 0 | 16.1 | 29.0 | 0.03 | 0.61 | 0.10 | 90 | 1011.8 |
| 20260506012517 | 2 | 0 | 14.5 | 25.7 | 0.00 | 0.58 | 0.08 | 89 | 1011.8 |
| 20260506011517 | 3 | 0 | 25.7 | 38.6 | 0.00 | 0.58 | 0.08 | 88 | 1011.3 |
| 20260506010517 | 3 | 0 | 22.5 | 38.6 | 0.03 | 0.61 | 0.08 | 89 | 1011.2 |
| 20260506005537 | 3 | 0 | 22.5 | 38.6 | 0.03 | 0.61 | 0.08 | 89 | 1011.4 |
| 20260506004517 | 2 | 0 | 20.9 | 32.2 | 0.03 | 0.61 | 0.08 | 89 | 1011.3 |
| 20260506003518 | 2 | 0 | 20.9 | 33.8 | 0.03 | 0.61 | 0.08 | 89 | 1011.3 |
| 20260506002517 | 2 | 0 | 19.3 | 30.6 | 0.03 | 0.61 | 0.08 | 89 | 1011.4 |
| 20260506001517 | 2 | 0 | 12.9 | 24.1 | 0.03 | 0.61 | 0.08 | 89 | 1011.4 |
| 20260506000517 | 2 | 0 | 17.7 | 32.2 | 0.00 | 0.61 | 0.05 | 88 | 1011.6 |
| 20260505235517 | 2 | 0 | 19.3 | 27.4 | 0.03 | 0.64 | 0.05 | 89 | 1011.4 |
| 20260505234517 | 2 | 0 | 17.7 | 25.7 | 0.05 | 0.66 | 0.05 | 89 | 1011.3 |
| 20260505233517 | 2 | 0 | 17.7 | 25.7 | 0.05 | 0.69 | 0.05 | 90 | 1011.4 |
| 20260505232517 | 2 | 0 | 16.1 | 24.1 | 0.05 | 0.69 | 0.05 | 91 | 1011.4 |
| 20260505231556 | 2 | 0 | 19.3 | 32.2 | 0.05 | 0.69 | 0.05 | 92 | 1011.3 |
| 20260505230516 | 1 | 0 | 11.3 | 27.4 | 0.05 | 0.69 | 0.05 | 92 | 1011.5 |
| 20260505225517 | 1 | 0 | 6.4 | 12.9 | 0.05 | 0.66 | 0.05 | 91 | 1011.6 |
| 20260505224536 | 1 | 0 | 8.0 | 16.1 | 0.05 | 0.64 | 0.03 | 90 | 1011.8 |
| 20260505223517 | 2 | 0 | 20.9 | 30.6 | 0.10 | 0.66 | 0.03 | 89 | 1011.9 |
| 20260505222518 | 2 | 0 | 16.1 | 32.2 | 0.10 | 0.66 | 0.03 | 90 | 1011.6 |
| 20260505221537 | 2 | 0 | 17.7 | 27.4 | 0.08 | 0.66 | 0.00 | 91 | 1011.4 |
| 20260505220537 | 2 | 0 | 17.7 | 25.7 | 0.08 | 0.66 | 0.00 | 91 | 1011.4 |